STARLINK-1480 (45741 NORAD) Tracking and Keplerian Element Data

This shows tracking and keplerian element data for the satellite.

Feedback or suggestion? Click here.




ElementValue
Catalog45741
NameSTARLINK-1480
Epoch Orbit442
Epoch Day185.24680163
Epoch Year2020
RAAN199.5666
Inclination52.999
Eccentricity0.0001782
Argument of Perigee108.9075
Mean Anonmoly251.2131
Mean Motion15.62759875
Decay Rate-5.47E-06
L11 45741U 20038M 20185.24680163 -.00000547 00000-0 -13179-6 0 9995
L22 45741 52.9990 199.5666 0001782 108.9075 251.2131 15.62759875 4427

Live tracking and technical data element details for STARLINK-1480 (NORAD 45741). STARLINK-1480 can be tracked NOW for your location showing map with azimuth and elevation plus other details from your city location.

Track the satellite on the map from your city or location and see movement details for azimuth, elevation, latitude, longitude, range, height, and movement on the map or in text.







IsCatalogInMostPopularTable: catalog: 45741, numindb: 4
Update: records affected: 1



GetName: 45741 STARLINK-1480

Hit Count: updated at: Sat, 04 Jul 2020 02:18:09 GMT